Location: Poigny-la-Forêt
(48.6876°N, 1.7701°E)
Time: 19:57:03
(UTC+02:00)

ISS - Pass Details

Date: 30 March 2019
Orbit: 408 x 410 km, 51.6° (Epoch: 25 April)

Event Time Altitude Azimuth Distance (km) Brightness Sun altitude
Rises 20:48:27 0° 283° (WNW) 2,338 1.8 -14.8°
Reaches altitude 10° 20:50:35 10° 289° (WNW) 1,475 0.4 -15.1°
Maximum altitude 20:53:49 50° 6° (N) 529 -3.2 -15.6°
Enters shadow 20:55:12 28° 67° (ENE) 794 -2.7 -15.8°
